星链-1028 (STARLINK-1028 )

导读 | 豆包AI

STARLINK-1028是美国太空探索技术公司星链卫星互联网项目的低轨通信卫星,于2019年11月11日发射升空,属于星链项目早期部署的卫星之一,旨在为全球提供低延迟、高速率的卫星互联网接入服务,目前已在近地轨道参与星链网络的组网运行,为用户提供太空互联网连接服务。

基本信息
目录编号:
44733
目录名称:
STARLINK-1028
国际标识:
2019-074W
轨道中心:
EARTH
卫星名称:
星链-1028
卫星全名:
星链-1028 (STARLINK-1028 )
卫星状态:
已陨落 最后检测时间 2025-02-14
发射日期:
2019-11-11 UTC
国别 :
美国 (US)
星等 :
--
轨道信息
数据来源 国际轨道数据
星历时间: 2025-02-15T06:06:59+0800
轨道信息已过期393天
半长轴: 6533.353km
偏心率: 0.0005062
轨道倾角: 53.032°
近地点辐角 225.042°
升交点赤经 81.630°
平近点角 277.702°
近地点: 151.91km
远地点: 158.526km
周期: 87.592分钟
每日圈数: 16.43988
详细信息
固有亮度:
5
最大亮度:
2.5
卫星平台:
Starlink V1.0
覆盖范围:
全球
运营商:
太空探索技术公司
运营商所在国:
美国
制造商(研发单位):
太空探索技术公司
制造商所在国:
美国
使用方式:
暂无
卫星简介
星链(Starlink)计划是由太空探索技术公司(SpaceX)提出的一个巨型低轨卫星互联网星座项目,计划在2019年至2024年间在太空搭建由约1.2万颗卫星组成的“星链”网络,其中1584颗将部署在地球上空550千米处的近地轨道,并从2020年开始工作。该卫星仍在工作。